Location: Newark
(46.7000°N, 60.6000°W)
Time: 15:37:44
(UTC+00:00)

S-56A Canister/Altair - Visible Passes

Search period start: 21 October 2020 00:00
Search period end: 31 October 2020 00:00
Orbit: 632 x 2500 km, 38.9° (Epoch: 20 October)

Date Brightness Start Highest point End Pass type
(mag) Time Alt. Az. Time Alt. Az. Time Alt. Az.
23 Oct 10.6 09:41:51 10° S 09:46:12 18° SE 09:51:35 10° E visible
24 Oct 10.6 09:10:32 10° SSE 09:13:41 14° SE 09:17:20 10° ESE visible
25 Oct 10.8 08:40:57 10° SE 08:41:13 10° SE 08:41:30 10° SE visible
26 Oct 10.1 10:05:13 10° SSW 10:10:42 31° SSE 10:18:23 10° E visible
27 Oct 10.0 09:33:12 10° SSW 09:38:07 26° SSE 09:44:46 10° E visible
28 Oct 10.0 09:01:16 10° SSW 09:05:36 22° SE 09:11:10 10° E visible
29 Oct 9.9 08:29:29 10° S 08:33:07 18° SE 08:37:33 10° ESE visible
30 Oct 9.9 07:58:12 11° S 08:00:39 14° SE 08:03:49 10° ESE visible
30 Oct 9.4 09:57:48 10° SW 10:03:09 39° SSE 10:10:47 10° E visible
